Change the Weather History Date:

Tuesday, January 29, 2013

  Actual Average (KJMS) Record (KJMS)
Temperature  
Mean Temperature 20 °F 11 °F  
Max Temperature 24 °F 21 °F 50 °F (1931)
Min Temperature 15 °F 1 °F -36 °F (1951)
Degree Days  
Heating Degree Days 46 54  
Month to date heating degree days 1591  
Since 1 July heating degree days 5251  
Cooling Degree Days 0 0  
Month to date cooling degree days 0  
Year to date cooling degree days 0  
Moisture  
Dew Point 17 °F    
Average Humidity 92    
Maximum Humidity 100    
Minimum Humidity 79    
Precipitation  
Precipitation 0.00 in 0.01 in 0.27 in (1984)
Month to date precipitation 0.43  
Year to date precipitation 0.43  
Sea Level Pressure  
Sea Level Pressure 29.78 in    
Wind  
Wind Speed 11 mph (NNW)    
Max Wind Speed 18 mph    
Max Gust Speed 25 mph    
Visibility 8 miles    
Events Rain , Snow    
T = Trace of Precipitation, MM = Missing Value Source: NWS Daily Summary

Daily Weather History Graph

Daily Weather History Graph

Search for Another Location

Airport or City:

Trip Planner

Search our weather history database for the weather conditions in past years. The results will help you decide how hot, cold, wet, or windy it might be!

Date:

Astronomy

Jan. 29, 2013 Rise Set
Actual Time 8:00 AM CST 5:30 PM CST
Civil Twilight 7:27 AM CST 6:03 PM CST
Nautical Twilight 6:50 AM CST 6:40 PM CST
Astronomical Twilight 6:14 AM CST 7:16 PM CST
Moon 8:44 PM CST (1/29) 8:44 AM CST (1/29)
Length of Visible Light 10h 36m
Length of Day
9h 30m
Waning Gibbous, 93% of the Moon is Illuminated
Jan 29
Waning Gibbous
Feb 3
Last Quarter
Feb 10
New
Feb 17
First Quarter
Feb 25
Full

Hourly Weather History & Observations

Time (CST) Temp. Windchill Dew Point Humidity Pressure Visibility Wind Dir Wind Speed Gust Speed Precip Events Conditions
12:15 AM 24.8 °F 14.6 °F 24.8 °F 100% 29.69 in 6.0 mi NNW 10.4 mph - N/A   Overcast
12:35 AM 24.8 °F 13.4 °F 21.2 °F 86% 29.68 in 10.0 mi NNW 12.7 mph - N/A   Overcast
12:55 AM 24.8 °F 14.0 °F 23.0 °F 93% 29.67 in 10.0 mi North 11.5 mph - N/A   Overcast
1:15 AM 24.8 °F 14.6 °F 21.2 °F 86% 29.66 in 10.0 mi North 10.4 mph - N/A   Overcast
1:35 AM 24.8 °F 14.6 °F 21.2 °F 86% 29.67 in 10.0 mi NNW 10.4 mph - N/A   Overcast
1:55 AM 23.0 °F 13.1 °F 21.2 °F 93% 29.66 in 10.0 mi NNW 9.2 mph - N/A   Overcast
2:15 AM 23.0 °F 12.4 °F 21.2 °F 93% 29.67 in 10.0 mi North 10.4 mph - N/A   Overcast
2:35 AM 23.0 °F 11.7 °F 21.2 °F 93% 29.67 in 9.0 mi NNW 11.5 mph - N/A   Overcast
2:55 AM 23.0 °F 14.7 °F 19.4 °F 86% 29.68 in 10.0 mi NNW 6.9 mph - N/A   Overcast
3:15 AM 21.2 °F 11.7 °F 19.4 °F 93% 29.68 in 9.0 mi NNW 8.1 mph - N/A   Overcast
3:35 AM 21.2 °F 13.6 °F 19.4 °F 93% 29.68 in 9.0 mi NW 5.8 mph - N/A   Overcast
3:55 AM 19.4 °F 9.5 °F 19.4 °F 100% 29.67 in 10.0 mi NNW 8.1 mph - N/A   Overcast
4:15 AM 19.4 °F 7.9 °F 17.6 °F 93% 29.68 in 10.0 mi NNW 10.4 mph - N/A   Overcast
4:35 AM 19.4 °F 9.5 °F 17.6 °F 93% 29.68 in 10.0 mi NNW 8.1 mph - N/A   Overcast
5:15 AM 17.6 °F 5.7 °F 17.6 °F 100% 29.67 in 10.0 mi NNW 10.4 mph - N/A   Overcast
5:35 AM 17.6 °F 5.7 °F 15.8 °F 93% 29.67 in 9.0 mi North 10.4 mph - N/A   Overcast
5:55 AM 15.8 °F 3.4 °F 15.8 °F 100% 29.68 in 9.0 mi NNW 10.4 mph - N/A   Overcast
6:15 AM 15.8 °F 3.4 °F 15.8 °F 100% 29.68 in 5.0 mi NNW 10.4 mph - N/A   Overcast
6:35 AM 15.8 °F 2.7 °F 15.8 °F 100% 29.69 in 5.0 mi NW 11.5 mph - N/A   Overcast
6:55 AM 15.8 °F 5.1 °F 15.8 °F 100% 29.70 in 4.0 mi NNW 8.1 mph - N/A   Overcast
7:15 AM 15.8 °F 2.1 °F 15.8 °F 100% 29.70 in 5.0 mi NNW 12.7 mph - N/A   Overcast
7:35 AM 15.8 °F 3.4 °F 15.8 °F 100% 29.71 in 7.0 mi NNW 10.4 mph - N/A   Overcast
7:55 AM 15.8 °F 2.7 °F 15.8 °F 100% 29.71 in 6.0 mi NNW 11.5 mph - N/A   Overcast
8:15 AM 15.8 °F 3.4 °F 15.8 °F 100% 29.72 in 6.0 mi NNW 10.4 mph - N/A   Overcast
8:35 AM 15.8 °F 2.7 °F 15.8 °F 100% 29.73 in 7.0 mi NNW 11.5 mph - N/A   Overcast
8:55 AM 15.8 °F 3.4 °F 15.8 °F 100% 29.73 in 7.0 mi NNW 10.4 mph - N/A   Overcast
9:15 AM 15.8 °F 5.1 °F 15.8 °F 100% 29.73 in 5.0 mi North 8.1 mph - N/A   Overcast
9:35 AM 15.8 °F 3.4 °F 15.8 °F 100% 29.74 in 4.0 mi NNW 10.4 mph - N/A   Overcast
9:55 AM 17.6 °F 7.3 °F 17.6 °F 100% 29.74 in 5.0 mi NNW 8.1 mph - N/A   Overcast
10:15 AM 17.6 °F 6.4 °F 17.6 °F 100% 29.75 in 4.0 mi NNW 9.2 mph - N/A   Overcast
10:35 AM 17.6 °F 6.4 °F 17.6 °F 100% 29.76 in 5.0 mi NNW 9.2 mph - N/A   Overcast
10:55 AM 17.6 °F 5.7 °F 17.6 °F 100% 29.76 in 5.0 mi NNW 10.4 mph - N/A   Overcast
11:15 AM 19.4 °F 7.2 °F 19.4 °F 100% 29.76 in 6.0 mi NNW 11.5 mph - N/A   Overcast
11:35 AM 19.4 °F 7.2 °F 19.4 °F 100% 29.76 in 7.0 mi NNW 11.5 mph - N/A   Overcast
11:55 AM 19.4 °F 8.6 °F 19.4 °F 100% 29.77 in 7.0 mi NNW 9.2 mph - N/A   Overcast
12:15 PM 19.4 °F 7.2 °F 19.4 °F 100% 29.77 in 7.0 mi NNW 11.5 mph - N/A   Overcast
12:35 PM 19.4 °F 8.6 °F 19.4 °F 100% 29.77 in 7.0 mi NW 9.2 mph - N/A   Overcast
12:55 PM 21.2 °F 8.9 °F 19.4 °F 93% 29.77 in 7.0 mi NNW 12.7 mph - N/A   Overcast
1:15 PM 21.2 °F 9.5 °F 19.4 °F 93% 29.77 in 7.0 mi NNW 11.5 mph - N/A   Overcast
1:35 PM 21.2 °F 7.3 °F 19.4 °F 93% 29.77 in 8.0 mi North 16.1 mph 19.6 mph N/A   Overcast
1:55 PM 21.2 °F 8.3 °F 19.4 °F 93% 29.77 in 9.0 mi North 13.8 mph 18.4 mph N/A Rain Light Freezing Rain
2:15 PM 21.2 °F 6.8 °F 19.4 °F 93% 29.76 in 9.0 mi North 17.3 mph - N/A Rain Light Freezing Rain
2:35 PM 21.2 °F 8.3 °F 19.4 °F 93% 29.76 in 8.0 mi North 13.8 mph 19.6 mph N/A Rain Light Freezing Rain
2:55 PM 23.0 °F 10.1 °F 19.4 °F 86% 29.77 in 8.0 mi North 15.0 mph - N/A Rain Light Freezing Rain
3:15 PM 23.0 °F 10.1 °F 19.4 °F 86% 29.79 in 9.0 mi North 15.0 mph - N/A Rain Light Freezing Rain
3:35 PM 23.0 °F 10.6 °F 17.6 °F 80% 29.80 in 10.0 mi NNW 13.8 mph - N/A Rain Light Freezing Rain
3:55 PM 23.0 °F 11.1 °F 17.6 °F 80% 29.82 in 10.0 mi NNW 12.7 mph - N/A Rain Light Freezing Rain
4:15 PM 23.0 °F 10.6 °F 17.6 °F 80% 29.83 in 10.0 mi NNW 13.8 mph - N/A Rain Light Freezing Rain
4:35 PM 23.0 °F 10.6 °F 17.6 °F 80% 29.83 in 9.0 mi NNW 13.8 mph 17.3 mph N/A Rain Light Freezing Rain
4:55 PM 23.0 °F 10.6 °F 17.6 °F 80% 29.83 in 10.0 mi North 13.8 mph 18.4 mph N/A Rain Light Freezing Rain
5:15 PM 21.2 °F 8.9 °F 17.6 °F 86% 29.83 in 8.0 mi North 12.7 mph - N/A Rain Light Freezing Rain
5:35 PM 21.2 °F 8.3 °F 17.6 °F 86% 29.84 in 5.0 mi NNW 13.8 mph - N/A Snow Light Snow
5:55 PM 21.2 °F 9.5 °F 15.8 °F 80% 29.85 in 10.0 mi North 11.5 mph - N/A Rain Light Freezing Rain
6:15 PM 21.2 °F 8.9 °F 17.6 °F 86% 29.85 in 8.0 mi North 12.7 mph - N/A Snow Light Snow
6:35 PM 19.4 °F 6.6 °F 17.6 °F 93% 29.85 in 10.0 mi NNW 12.7 mph - N/A   Overcast
6:55 PM 19.4 °F 6.6 °F 17.6 °F 93% 29.85 in 4.0 mi NNW 12.7 mph - N/A Snow Light Snow
7:15 PM 19.4 °F 6.6 °F 17.6 °F 93% 29.87 in 10.0 mi NNW 12.7 mph - N/A Snow Light Snow
7:35 PM 19.4 °F 7.9 °F 19.4 °F 100% 29.89 in 8.0 mi NNW 10.4 mph - N/A Snow Light Snow
7:55 PM 19.4 °F 7.9 °F 19.4 °F 100% 29.92 in 9.0 mi NNW 10.4 mph - N/A Snow Light Snow
8:15 PM 19.4 °F 7.9 °F 19.4 °F 100% 29.92 in 8.0 mi NNW 10.4 mph - N/A Snow Light Snow
8:35 PM 19.4 °F 6.0 °F 15.8 °F 86% 29.93 in 6.0 mi North 13.8 mph - N/A Snow Light Snow
8:55 PM 17.6 °F 3.7 °F 15.8 °F 93% 29.92 in 9.0 mi North 13.8 mph - N/A Snow Light Snow
9:15 PM 17.6 °F 3.2 °F 14.0 °F 86% 29.92 in 9.0 mi North 15.0 mph 23.0 mph N/A Rain Light Freezing Rain
9:35 PM 17.6 °F 3.2 °F 14.0 °F 86% 29.92 in 9.0 mi NNW 15.0 mph - N/A Snow Light Snow
9:55 PM 15.8 °F -0.6 °F 10.4 °F 79% 29.92 in 10.0 mi North 18.4 mph 25.3 mph N/A Rain Light Freezing Rain
10:15 PM 15.8 °F 0.3 °F 10.4 °F 79% 29.93 in 10.0 mi North 16.1 mph 21.9 mph N/A Rain Light Freezing Rain
10:35 PM 15.8 °F 0.3 °F 10.4 °F 79% 29.92 in 10.0 mi NNW 16.1 mph - N/A Rain Light Freezing Rain
10:55 PM 15.8 °F 0.9 °F 10.4 °F 79% 29.92 in 10.0 mi NNW 15.0 mph - N/A   Overcast
11:15 PM 15.8 °F 1.4 °F 12.2 °F 86% 29.92 in 9.0 mi NNW 13.8 mph - N/A Snow Light Snow
11:35 PM 15.8 °F 0.3 °F 12.2 °F 86% 29.92 in 10.0 mi NNW 16.1 mph - N/A   Overcast
11:55 PM 15.8 °F 1.4 °F 12.2 °F 86% 29.92 in 10.0 mi NNW 13.8 mph - N/A Snow Light Snow